Batesville, AR

4:53 PM CDT on September 23, 2017 (GMT -0500)
Batesville Regional

Weather History for KBVX - January, 2014

Change the Weather History Date:

Monday, January 13, 2014

  Actual Average Record
Temperature  
Mean Temperature 52 °F -  
Max Temperature 62 °F 45 °F 68 °F (1960)
Min Temperature 42 °F 24 °F 3 °F (1963)
Degree Days  
Heating Degree Days 13    
Growing Degree Days 2 (Base 50)    
Moisture  
Dew Point 35 °F    
Average Humidity 50    
Maximum Humidity 77    
Minimum Humidity 34    
Precipitation  
Precipitation 0.00 in - - ()
Sea Level Pressure  
Sea Level Pressure 29.83 in    
Wind  
Wind Speed 6 mph (WSW)    
Max Wind Speed 14 mph    
Max Gust Speed 23 mph    
Visibility 10 miles    
Events      
Averages and records for this station are not official NWS values.
T = Trace of Precipitation, MM = Missing Value Source: NWS Daily Summary

Daily Weather History Graph

Daily Weather History Graph

Search for Another Location

Airport or City:

Trip Planner

Search our weather history database for the weather conditions in past years. The results will help you decide how hot, cold, wet, or windy it might be!

Date:

Astronomy

Jan. 13, 2014 Rise Set
Actual Time 7:16 AM CST 5:14 PM CST
Civil Twilight 6:48 AM CST 5:42 PM CST
Nautical Twilight 6:16 AM CST 6:14 PM CST
Astronomical Twilight 5:46 AM CST 6:44 PM CST
Moon 3:29 PM CST (1/13) 5:05 AM CST (1/13)
Length of Visible Light 10h 54m
Length of Day
9h 58m
Waxing Gibbous, 95% of the Moon is Illuminated
Jan 13
Waxing Gibbous
Jan 15
Full
Jan 23
Last Quarter
Jan 30
New
Feb 6
First Quarter

Hourly Weather History & Observations

Time (CST) Temp. Windchill Dew Point Humidity Pressure Visibility Wind Dir Wind Speed Gust Speed Precip Events Conditions
12:15 AM 50.0 °F - 37.4 °F 62% 29.78 in 10.0 mi East 4.6 mph - N/A   Clear
12:35 AM 51.8 °F - 35.6 °F 54% 29.79 in 10.0 mi East 3.5 mph - N/A   Clear
12:55 AM 50.0 °F - 35.6 °F 58% 29.79 in 10.0 mi SE 4.6 mph - N/A   Clear
1:15 AM 51.8 °F - 35.6 °F 54% 29.80 in 10.0 mi Calm Calm - N/A   Clear
1:35 AM 53.6 °F - 35.6 °F 51% 29.79 in 10.0 mi SSE 3.5 mph - N/A   Clear
1:55 AM 53.6 °F - 35.6 °F 51% 29.79 in 10.0 mi SSE 9.2 mph - N/A   Clear
2:15 AM 55.4 °F - 35.6 °F 47% 29.78 in 10.0 mi South 8.1 mph - N/A   Clear
2:35 AM 55.4 °F - 35.6 °F 47% 29.80 in 10.0 mi South 4.6 mph - N/A   Clear
2:55 AM 55.4 °F - 37.4 °F 51% 29.80 in 10.0 mi South 4.6 mph - N/A   Clear
3:15 AM 55.4 °F - 37.4 °F 51% 29.79 in 10.0 mi South 8.1 mph - N/A   Clear
3:35 AM 55.4 °F - 37.4 °F 51% 29.79 in 10.0 mi South 3.5 mph - N/A   Clear
3:55 AM 53.6 °F - 37.4 °F 54% 29.78 in 10.0 mi SSE 6.9 mph - N/A   Clear
4:15 AM 53.6 °F - 39.2 °F 58% 29.77 in 10.0 mi SE 5.8 mph - N/A   Clear
4:35 AM 53.6 °F - 39.2 °F 58% 29.76 in 10.0 mi SSE 6.9 mph - N/A   Clear
4:55 AM 53.6 °F - 39.2 °F 58% 29.77 in 10.0 mi SE 6.9 mph - N/A   Partly Cloudy
5:15 AM 53.6 °F - 39.2 °F 58% 29.76 in 10.0 mi SE 6.9 mph - N/A   Mostly Cloudy
5:35 AM 53.6 °F - 39.2 °F 58% 29.76 in 10.0 mi South 5.8 mph - N/A   Partly Cloudy
5:55 AM 53.6 °F - 39.2 °F 58% 29.76 in 10.0 mi SSE 6.9 mph - N/A   Scattered Clouds
6:15 AM 53.6 °F - 39.2 °F 58% 29.77 in 10.0 mi South 6.9 mph - N/A   Overcast
6:35 AM 53.6 °F - 39.2 °F 58% 29.78 in 10.0 mi South 6.9 mph - N/A   Overcast
6:55 AM 53.6 °F - 41.0 °F 62% 29.78 in 10.0 mi South 8.1 mph - N/A   Overcast
7:15 AM 53.6 °F - 39.2 °F 58% 29.77 in 10.0 mi South 6.9 mph - N/A   Overcast
7:35 AM 53.6 °F - 41.0 °F 62% 29.78 in 10.0 mi South 6.9 mph - N/A   Scattered Clouds
7:55 AM 53.6 °F - 42.8 °F 67% 29.78 in 10.0 mi South 9.2 mph - N/A   Partly Cloudy
8:15 AM 53.6 °F - 42.8 °F 67% 29.78 in 10.0 mi South 4.6 mph - N/A   Clear
8:35 AM 53.6 °F - 44.6 °F 72% 29.79 in 10.0 mi SSE 6.9 mph - N/A   Clear
8:55 AM 53.6 °F - 46.4 °F 77% 29.80 in 10.0 mi SSW 3.5 mph - N/A   Partly Cloudy
9:15 AM 55.4 °F - 46.4 °F 72% 29.82 in 10.0 mi West 5.8 mph - N/A   Mostly Cloudy
9:35 AM 55.4 °F - 48.2 °F 77% 29.82 in 10.0 mi WSW 8.1 mph - N/A   Overcast
9:55 AM 57.2 °F - 48.2 °F 72% 29.82 in 10.0 mi SW 9.2 mph - N/A   Mostly Cloudy
10:15 AM 57.2 °F - 48.2 °F 72% 29.82 in 10.0 mi SW 10.4 mph - N/A   Partly Cloudy
10:35 AM 60.8 °F - 50.0 °F 68% 29.82 in 10.0 mi WSW 11.5 mph - N/A   Mostly Cloudy
10:55 AM 59.0 °F - 48.2 °F 67% 29.81 in 10.0 mi WNW 9.2 mph - N/A   Overcast
11:15 AM 60.8 °F - 46.4 °F 59% 29.81 in 10.0 mi WNW 9.2 mph 18.4 mph N/A   Mostly Cloudy
11:35 AM 60.8 °F - 42.8 °F 52% 29.80 in 10.0 mi West 9.2 mph - N/A   Scattered Clouds
11:55 AM 60.8 °F - 37.4 °F 42% 29.80 in 10.0 mi WNW 11.5 mph 18.4 mph N/A   Clear
12:15 PM 60.8 °F - 35.6 °F 39% 29.79 in 10.0 mi WNW 11.5 mph 19.6 mph N/A   Clear
12:35 PM 60.8 °F - 33.8 °F 36% 29.80 in 10.0 mi WNW 11.5 mph 19.6 mph N/A   Clear
12:55 PM 60.8 °F - 33.8 °F 36% 29.79 in 10.0 mi WNW 13.8 mph 20.7 mph N/A   Clear
1:15 PM 60.8 °F - 33.8 °F 36% 29.78 in 10.0 mi WNW 8.1 mph 19.6 mph N/A   Clear
1:35 PM 62.6 °F - 33.8 °F 34% 29.78 in 10.0 mi West 12.7 mph 16.1 mph N/A   Clear
1:55 PM 60.8 °F - 35.6 °F 39% 29.78 in 10.0 mi West 11.5 mph 18.4 mph N/A   Clear
2:15 PM 60.8 °F - 33.8 °F 36% 29.79 in 10.0 mi West 13.8 mph 18.4 mph N/A   Partly Cloudy
2:35 PM 60.8 °F - 33.8 °F 36% 29.80 in 10.0 mi West 9.2 mph 17.3 mph N/A   Mostly Cloudy
2:55 PM 60.8 °F - 32.0 °F 34% 29.80 in 10.0 mi WNW 12.7 mph 23.0 mph N/A   Scattered Clouds
3:15 PM 59.0 °F - 33.8 °F 39% 29.81 in 10.0 mi WNW 10.4 mph - N/A   Scattered Clouds
3:35 PM 59.0 °F - 33.8 °F 39% 29.81 in 10.0 mi West 10.4 mph 18.4 mph N/A   Scattered Clouds
3:55 PM 59.0 °F - 33.8 °F 39% 29.82 in 10.0 mi WNW 8.1 mph 16.1 mph N/A   Clear
4:15 PM 59.0 °F - 32.0 °F 36% 29.83 in 10.0 mi WNW 9.2 mph 17.3 mph N/A   Clear
4:35 PM 57.2 °F - 32.0 °F 38% 29.83 in 10.0 mi WNW 11.5 mph 17.3 mph N/A   Clear
4:55 PM 57.2 °F - 30.2 °F 36% 29.85 in 10.0 mi WNW 6.9 mph 16.1 mph N/A   Clear
5:15 PM 55.4 °F - 30.2 °F 38% 29.85 in 10.0 mi WNW 10.4 mph 16.1 mph N/A   Clear
5:35 PM 55.4 °F - 30.2 °F 38% 29.86 in 10.0 mi West 4.6 mph - N/A   Clear
5:55 PM 53.6 °F - 30.2 °F 41% 29.87 in 10.0 mi WNW 5.8 mph - N/A   Clear
6:15 PM 53.6 °F - 28.4 °F 38% 29.88 in 10.0 mi West 6.9 mph - N/A   Clear
6:35 PM 51.8 °F - 26.6 °F 38% 29.89 in 10.0 mi West 4.6 mph - N/A   Clear
6:55 PM 51.8 °F - 26.6 °F 38% 29.90 in 10.0 mi WNW 3.5 mph - N/A   Clear
7:15 PM 50.0 °F - 26.6 °F 40% 29.91 in 10.0 mi WNW 4.6 mph - N/A   Clear
7:35 PM 48.2 °F - 28.4 °F 46% 29.92 in 10.0 mi WNW 5.8 mph - N/A   Clear
7:55 PM 48.2 °F - 26.6 °F 43% 29.93 in 10.0 mi WNW 5.8 mph - N/A   Clear
8:15 PM 48.2 °F - 26.6 °F 43% 29.94 in 10.0 mi West 4.6 mph - N/A   Clear
8:35 PM 46.4 °F 45.2 °F 24.8 °F 43% 29.94 in 10.0 mi West 3.5 mph - N/A   Clear
8:55 PM 46.4 °F 45.2 °F 26.6 °F 46% 29.96 in 10.0 mi West 3.5 mph - N/A   Clear
9:15 PM 46.4 °F 44.3 °F 26.6 °F 46% 29.96 in 10.0 mi West 4.6 mph - N/A   Clear
9:35 PM 44.6 °F 42.2 °F 26.6 °F 49% 29.96 in 10.0 mi West 4.6 mph - N/A   Clear
9:55 PM 46.4 °F 45.2 °F 26.6 °F 46% 29.96 in 10.0 mi WNW 3.5 mph - N/A   Clear
10:15 PM 42.8 °F - 26.6 °F 53% 29.96 in 10.0 mi Calm Calm - N/A   Clear
10:35 PM 42.8 °F - 26.6 °F 53% 29.96 in 10.0 mi Calm Calm - N/A   Clear
10:55 PM 44.6 °F 42.2 °F 26.6 °F 49% 29.96 in 10.0 mi SW 4.6 mph - N/A   Clear
11:15 PM 44.6 °F 42.2 °F 24.8 °F 46% 29.95 in 10.0 mi WSW 4.6 mph - N/A   Clear
11:35 PM 42.8 °F 39.3 °F 24.8 °F 49% 29.95 in 10.0 mi WSW 5.8 mph - N/A   Clear
11:55 PM 42.8 °F 39.3 °F 24.8 °F 49% 29.95 in 10.0 mi WSW 5.8 mph - N/A   Clear